INTELSAT 33E (IS-33E) (41748 NORAD) Tracking and Keplerian Element Data

This shows tracking and keplerian element data for the satellite.

Feedback or suggestion? Click here.




ElementValue
Catalog41748
NameINTELSAT 33E (IS-33E)
Epoch Orbit728
Epoch Day200.00906393
Epoch Year2018
RAAN55.8657
Inclination0.0205
Eccentricity0.0002644
Argument of Perigee75.4063
Mean Anonmoly228.7328
Mean Motion1.00271011
Decay Rate3E-07
L11 41748U 16053B 18200.00906393 .00000030 00000-0 00000-0 0 9993
L22 41748 0.0205 55.8657 0002644 75.4063 228.7328 1.00271011 7282

Live tracking and technical data element details for INTELSAT 33E (IS-33E) (NORAD 41748). INTELSAT 33E (IS-33E) can be tracked NOW for your location showing map with azimuth and elevation plus other details from your city location.

Track the satellite on the map from your city or location and see movement details for azimuth, elevation, latitude, longitude, range, height, and movement on the map or in text.







IsCatalogInMostPopularTable: catalog: 41748, numindb: 83
Update: records affected: 1



GetName: 41748 INTELSAT 33E (IS-33E)

Hit Count: updated at: Sat, 21 Jul 2018 07:49:31 GMT